[[{"header":{"parameterUnit":"m.s-1","parameterCategory":1,"la1":30.2991,"la2":30.254,"lo1":-89.0895,"lo2":-89.0444,"dy":0.0017,"dx":0.0017,"nx":28,"ny":28,"refTime":"2024-03-24T21:00:00:Z","depth":0,"parameterNumber":2,"parameterNumberName":"U-component_of_WINDS"},"data":[0,0,0,0,0,0,0,0,0,0,0,0,0,0,0,0,0,0,0,0,0,0,0,0,0,0,0,0,0,0,0,0,0,0,0,0,0,0,0,0,0,0,0,0,0,0,0,0,0,0,0,0,0,0,0,0,0,0,-4.2836,-4.2836,0,-4.2836,-4.2836,-4.2836,-4.2742,-4.2739,-4.2737,-4.2734,-4.2734,-4.2736,-4.2739,0,0,0,0,0,0,0,0,0,0,0,0,0,-4.2756,-4.2758,-4.2836,-4.2836,-4.2836,-4.2836,-4.2836,-4.2836,-4.2742,-4.2739,-4.2736,-4.2733,-4.2733,-4.2736,-4.2739,0,0,0,0,0,0,0,0,0,0,0,0,0,-4.2777,-4.2759,-4.2836,-4.2789,-4.2785,-4.2836,-4.2836,-4.2836,-4.2743,-4.2739,-4.2735,-4.2732,-4.2733,-4.2736,-4.2739,-4.2836,0,0,-4.275,-4.2751,0,0,0,0,0,0,0,0,-4.2776,-4.278,-4.2796,-4.2793,-4.2788,-4.2785,-4.2808,-4.2836,-4.2744,-4.2759,-4.2734,-4.273,-4.2754,-4.2756,-4.2764,-4.2836,-4.2836,-4.275,-4.2752,-4.2754,-4.2755,0,0,0,0,0,0,0,-4.2775,-4.278,-4.2836,-4.2797,-4.2792,-4.2769,-4.2768,-4.2813,-4.2777,-4.2757,-4.275,-4.2752,-4.2751,-4.2761,-4.2763,-4.2836,-4.275,-4.2753,-4.2755,-4.2757,-4.2988,-4.2992,0,0,0,0,0,0,-4.278,-4.2779,-4.2836,-4.2836,-4.2773,-4.2773,-4.2772,-4.279,-4.2777,-4.2771,-4.2755,-4.2747,-4.2757,-4.2759,-4.2763,-4.2874,-4.2754,-4.2757,-4.2759,-4.2984,-4.2989,-4.2993,0,0,0,0,0,0,-4.2778,-4.2786,-4.2836,-4.2806,-4.2811,-4.2779,-4.28,-4.2792,-4.2801,-4.2775,-4.2768,-4.2771,-4.2754,-4.2758,-4.2819,-4.2873,-4.2759,-4.2762,-4.2979,-4.2985,-4.2991,-4.3099,0,0,0,0,0,0,-4.2776,-4.2786,-4.2821,-4.2807,-4.2813,-4.2892,-4.2803,-4.2795,-4.2807,-4.2797,-4.2788,-4.2783,-4.2751,-4.2814,-4.2822,-4.2876,-4.2765,-4.2974,-4.2982,-4.2989,-4.309,-4.3108,-4.3123,0,0,0,0,0,-4.2774,-4.2851,-4.2823,-4.2831,-4.2856,-4.2895,-4.2898,-4.286,-4.2812,-4.2848,-4.2832,-4.2783,-4.2867,-4.2821,-4.2829,-4.2885,-4.297,-4.298,-4.2988,-4.3083,-4.3105,-4.3123,0,0,0,0,0,0,-4.2871,-4.2848,-4.2817,-4.2893,-4.2897,-4.2879,-4.2922,-4.2884,-4.2901,-4.2891,-4.2843,-4.2842,-4.291,-4.2904,-4.2853,-4.2978,-4.291,-4.2921,-4.2979,-4.2999,-4.3016,-4.3014,-4.2767,0,0,0,0,0,-4.2902,-4.2935,-4.2914,-4.2982,-4.2986,-4.2955,-4.297,-4.2941,-4.2942,-4.2943,-4.2931,-4.2935,-4.2962,-4.2981,-4.3004,-4.309,-4.3087,-4.3133,-4.315,-4.3163,-4.3173,-4.3218,-4.3238,-4.3023,-4.3023,-4.3023,0,0,-4.2965,-4.2957,-4.298,-4.3002,-4.3001,-4.3037,-4.2956,-4.2997,-4.3023,-4.295,-4.3005,-4.2998,-4.2999,-4.3073,-4.3105,-4.307,-4.3232,-4.3175,-4.3186,-4.3188,-4.323,-4.325,-4.3268,-4.3029,-4.3028,-4.3027,0,0,-4.3097,-4.3095,-4.3152,-4.3154,-4.3154,-4.3134,-4.3148,-4.3137,-4.3129,-4.3185,-4.3131,-4.3162,-4.3209,-4.3213,-4.3221,-4.3359,-4.3315,-4.3368,-4.3452,-4.3497,-4.3514,-4.3529,-4.3577,-4.3596,-4.3378,-4.3378,-4.3379,0,-4.3175,-4.3226,-4.3186,-4.3231,-4.3242,-4.3179,-4.3237,-4.3241,-4.3249,-4.3259,-4.322,-4.328,-4.3276,-4.335,-4.3384,-4.3393,-4.3408,-4.3367,-4.3515,-4.353,-4.3543,-4.3588,-4.3607,-4.3385,-4.3384,-4.3383,-4.3383,0,-4.3322,-4.3358,-4.3405,-4.3415,-4.3432,-4.3483,-4.3452,-4.3474,-4.3445,-4.3428,-4.3487,-4.3481,-4.3503,-4.3519,-4.349,-4.359,-4.3568,-4.3524,-4.3453,-4.357,-4.3612,-4.363,-4.3394,-4.3391,-4.339,-4.3388,0,0,-4.3511,-4.3502,-4.3519,-4.3523,-4.3522,-4.3549,-4.3599,-4.3621,-4.3641,-4.365,-4.369,-4.3734,-4.3693,-4.3702,-4.3674,-4.3714,-4.3823,-4.3664,-4.3663,-4.3693,-4.3932,-4.3964,-4.3985,-4.3796,-4.3799,-4.3801,-4.3932,0,-4.3638,-4.3721,-4.3688,-4.3774,-4.3808,-4.375,-4.3794,-4.3798,-4.3785,-4.3812,-4.3798,-4.3829,-4.3774,-4.3779,-4.3816,-4.3802,-4.387,-4.3793,-4.3832,-4.3834,-4.3831,-4.4007,-4.4041,-4.4164,-4.3948,-4.3951,-4.3953,0,-4.3796,-4.3813,-4.3903,-4.3897,-4.3909,-4.3949,-4.3967,-4.3994,-4.3998,-4.3986,-4.3999,-4.3962,-4.4011,-4.3944,-4.4011,-4.3959,-4.3974,-4.397,-4.3974,-4.3974,-4.3898,-4.401,-4.4202,-4.422,-4.3979,-4.3977,-4.3975,0,-4.3925,-4.397,-4.4029,-4.4035,-4.403,-4.4059,-4.4058,-4.4059,-4.4075,-4.4091,-4.4101,-4.4124,-4.4135,-4.4154,-4.4125,-4.4079,-4.4196,-4.4126,-4.4187,-4.4188,-4.4211,-4.421,-4.4406,-4.4225,-4.4225,-4.4225,-4.4224,0,-4.4068,-4.4125,-4.4087,-4.4123,-4.4185,-4.4148,-4.4211,-4.4204,-4.4206,-4.4241,-4.4193,-4.4227,-4.4188,-4.4218,-4.4196,-4.4255,-4.4261,-4.4252,-4.4245,-4.4255,-4.4256,-4.4262,-4.4252,-4.4229,-4.4228,-4.4227,-4.4227,0,-4.422,-4.4197,-4.4258,-4.4249,-4.4248,-4.4294,-4.4287,-4.432,-4.4306,-4.435,-4.4359,-4.4336,-4.4369,-4.4343,-4.4376,-4.4361,-4.4438,-4.442,-4.4436,-4.4431,-4.4492,-4.4486,-4.4697,-4.4723,-4.4528,-4.453,-4.4531,0,-4.4312,-4.4354,-4.4351,-4.4371,-4.4373,-4.4406,-4.4422,-4.4389,-4.4408,-4.4418,-4.445,-4.448,-4.4501,-4.4558,-4.4544,-4.4569,-4.455,-4.4623,-4.4553,-4.4562,-4.4549,-4.4546,-4.455,-4.4636,-4.4638,-4.464,-4.4641,0,-4.4477,-4.4464,-4.449,-4.4512,-4.4534,-4.455,-4.4562,-4.4581,-4.4547,-4.4571,-4.4605,-4.4622,-4.4657,-4.4686,-4.4707,-4.4707,-4.4669,-4.4664,-4.4679,-4.4688,-4.4695,-4.4691,-4.4472,-4.4658,-4.4657,-4.4655,-4.4655,-4.4654,-4.46,-4.4636,-4.4639,-4.467,-4.4676,-4.4689,-4.4721,-4.4711,-4.4739,-4.4764,-4.4743,-4.4784,-4.4789,-4.4814,-4.4819,-4.485,-4.482,-4.4842,-4.4847,-4.4853,-4.4861,-4.4693,-4.4854,-4.4854,-4.4853,-4.4853,-4.4852,0,-4.4762,-4.4762,-4.4791,-4.481,-4.4835,-4.4799,-4.4811,-4.4834,-4.487,-4.4879,-4.4902,-4.4942,-4.4971,-4.4962,-4.4988,-4.5016,-4.4999,-4.5024,-4.502,-4.502,-4.4887,-4.487,-4.5037,-4.5037,-4.5037,-4.5037,-4.5036,-4.5036,-4.4848,-4.4906,-4.4895,-4.4956,-4.4956,-4.4996,-4.5006,-4.5018,-4.5025,-4.5072,-4.5096,-4.509,-4.5092,-4.5119,-4.5145,-4.5141,-4.5152,-4.5183,-4.5173,-4.5048,-4.503,-4.5012,-4.4996,-4.5186,-4.5187,-4.5304,-4.5305,-4.5305]},{"header":{"parameterUnit":"m.s-1","parameterCategory":1,"la1":30.2991,"la2":30.254,"lo1":-89.0895,"lo2":-89.0444,"dy":0.0017,"dx":0.0017,"nx":28,"ny":28,"refTime":"2024-03-24T21:00:00:Z","depth":0,"parameterNumber":3,"parameterNumberName":"V-component_of_WINDS"},"data":[0,0,0,0,0,0,0,0,0,0,0,0,0,0,0,0,0,0,0,0,0,0,0,0,0,0,0,0,0,0,0,0,0,0,0,0,0,0,0,0,0,0,0,0,0,0,0,0,0,0,0,0,0,0,0,0,0,0,2.5909,2.5909,0,2.5894,2.5894,2.5893,2.5916,2.5917,2.5918,2.5919,2.5898,2.5897,2.5895,0,0,0,0,0,0,0,0,0,0,0,0,0,2.5955,2.5954,2.5909,2.5909,2.5909,2.5894,2.5893,2.5893,2.5916,2.5917,2.5918,2.5919,2.5898,2.5897,2.5895,0,0,0,0,0,0,0,0,0,0,0,0,0,2.5937,2.5954,2.5909,2.5918,2.5919,2.5894,2.5893,2.5893,2.5916,2.5917,2.5918,2.5919,2.5899,2.5897,2.5895,2.5858,0,0,2.5889,2.5888,0,0,0,0,0,0,0,0,2.5938,2.5935,2.5917,2.5918,2.5918,2.5908,2.5902,2.5881,2.5915,2.5917,2.5919,2.592,2.59,2.5898,2.5892,2.5857,2.5856,2.5889,2.5888,2.5887,2.5886,0,0,0,0,0,0,0,2.5939,2.5936,2.5903,2.5917,2.5918,2.5922,2.5921,2.5898,2.5902,2.5917,2.5919,2.5917,2.59,2.5894,2.5892,2.5856,2.5889,2.5887,2.5886,2.5885,2.5792,2.5791,0,0,0,0,0,0,2.594,2.5937,2.5903,2.5902,2.5932,2.592,2.5919,2.591,2.5902,2.5902,2.5916,2.5918,2.5897,2.5894,2.5891,2.5849,2.5887,2.5885,2.5884,2.5793,2.5792,2.579,0,0,0,0,0,0,2.5941,2.5937,2.5904,2.592,2.5916,2.5918,2.5908,2.5909,2.5903,2.5901,2.5901,2.5909,2.5898,2.5894,2.5867,2.5849,2.5884,2.5882,2.5795,2.5793,2.5791,2.5763,0,0,0,0,0,0,2.5942,2.5937,2.5924,2.592,2.5915,2.5881,2.5907,2.5908,2.59,2.5903,2.5895,2.5894,2.5898,2.587,2.5865,2.5846,2.5881,2.5796,2.5794,2.5792,2.5766,2.5761,2.5756,0,0,0,0,0,2.5944,2.5915,2.5923,2.5919,2.5899,2.588,2.5877,2.5884,2.5898,2.5885,2.5884,2.5895,2.5851,2.5867,2.5862,2.5842,2.5798,2.5795,2.5792,2.5768,2.5762,2.5756,0,0,0,0,0,0,2.5914,2.5915,2.5923,2.5893,2.5886,2.5884,2.5867,2.5877,2.5864,2.5867,2.5874,2.5872,2.5844,2.584,2.5858,2.5807,2.5827,2.5823,2.5811,2.5804,2.58,2.5801,2.5879,0,0,0,0,0,2.5905,2.589,2.5891,2.5864,2.5861,2.5864,2.5856,2.5862,2.5855,2.5852,2.5849,2.584,2.5825,2.5814,2.58,2.5766,2.5764,2.575,2.5745,2.5741,2.5737,2.572,2.5714,2.5781,2.5781,2.5781,0,0,2.5884,2.5882,2.5872,2.5858,2.5854,2.5838,2.5862,2.5843,2.5831,2.5848,2.5823,2.5821,2.5812,2.5782,2.5768,2.5778,2.5719,2.5737,2.5734,2.5732,2.5716,2.571,2.5704,2.5779,2.5779,2.5779,0,0,2.5838,2.5836,2.5814,2.581,2.5804,2.5807,2.5802,2.5798,2.5798,2.5773,2.5786,2.5771,2.5744,2.5738,2.5731,2.5686,2.5695,2.5681,2.5655,2.5638,2.5633,2.5628,2.5612,2.5606,2.5677,2.5677,2.5677,0,2.5813,2.5791,2.5801,2.5783,2.5776,2.5793,2.577,2.5765,2.5754,2.5749,2.576,2.5729,2.5724,2.5693,2.5682,2.5675,2.5669,2.5681,2.5633,2.5628,2.5624,2.5609,2.5603,2.5675,2.5675,2.5675,2.5676,0,2.576,2.5745,2.5728,2.5719,2.5711,2.569,2.5696,2.5686,2.5693,2.5695,2.567,2.5665,2.5651,2.5644,2.5649,2.5614,2.562,2.5632,2.5652,2.5616,2.5602,2.5596,2.5673,2.5673,2.5674,2.5674,0,0,2.5695,2.5694,2.5687,2.5684,2.568,2.5667,2.5648,2.5636,2.5627,2.5619,2.5603,2.5581,2.5593,2.5585,2.559,2.5575,2.5541,2.559,2.5589,2.5581,2.5502,2.5493,2.5486,2.5547,2.5546,2.5545,2.5503,0,2.565,2.5618,2.5627,2.5595,2.5581,2.5598,2.5581,2.5576,2.5577,2.5564,2.5565,2.555,2.5566,2.5562,2.5548,2.5548,2.5525,2.5551,2.5532,2.5531,2.5534,2.5479,2.5469,2.5429,2.5497,2.5496,2.5496,0,2.5593,2.5586,2.5553,2.5552,2.5547,2.5531,2.5522,2.551,2.5505,2.5507,2.5499,2.5508,2.5488,2.5509,2.5482,2.55,2.5492,2.5491,2.549,2.5488,2.5511,2.5476,2.5416,2.541,2.5487,2.5488,2.5488,0,2.555,2.5531,2.5509,2.5506,2.5504,2.5494,2.5492,2.5488,2.5481,2.5472,2.5468,2.5456,2.545,2.544,2.5445,2.546,2.5417,2.5438,2.5418,2.5418,2.5408,2.5409,2.5347,2.5403,2.5403,2.5403,2.5403,0,2.5499,2.5478,2.549,2.5476,2.5454,2.5464,2.5441,2.5441,2.5438,2.5425,2.5438,2.5424,2.5432,2.5419,2.5423,2.5401,2.5397,2.5398,2.5399,2.5397,2.5397,2.5392,2.5395,2.5402,2.5402,2.5402,2.5403,0,2.5446,2.5453,2.5431,2.5432,2.5432,2.5415,2.5416,2.5403,2.5406,2.5389,2.5386,2.539,2.5375,2.538,2.5364,2.5367,2.5338,2.5343,2.5341,2.5342,2.5322,2.5324,2.5255,2.5246,2.5308,2.5307,2.5307,0,2.5414,2.5398,2.5399,2.5392,2.539,2.5378,2.5371,2.5381,2.5373,2.5367,2.5355,2.5343,2.5333,2.531,2.531,2.5299,2.5303,2.528,2.5301,2.53,2.5303,2.5304,2.5303,2.5275,2.5275,2.5274,2.5274,0,2.5355,2.536,2.5351,2.5343,2.5335,2.5329,2.5324,2.5317,2.5326,2.5317,2.5304,2.5296,2.5282,2.5269,2.5259,2.5256,2.5266,2.5267,2.5262,2.5259,2.5259,2.526,2.5329,2.5268,2.5269,2.5269,2.527,2.527,2.5312,2.5299,2.5299,2.5288,2.5286,2.5281,2.527,2.5272,2.5262,2.5252,2.5258,2.5243,2.5239,2.5226,2.5223,2.521,2.5219,2.5211,2.5209,2.5207,2.5205,2.5261,2.5208,2.5208,2.5209,2.5209,2.5209,0,2.5254,2.5255,2.5245,2.5239,2.5231,2.5243,2.5239,2.5231,2.5218,2.5214,2.5205,2.519,2.5178,2.5179,2.5168,2.5158,2.5163,2.5155,2.5156,2.5155,2.5198,2.5204,2.5152,2.5152,2.5152,2.5152,2.5152,2.5152,2.5224,2.5204,2.5209,2.5189,2.5189,2.5176,2.5172,2.5168,2.5165,2.5149,2.514,2.5141,2.5139,2.5128,2.5118,2.5119,2.5114,2.5105,2.5107,2.5146,2.5152,2.5157,2.5163,2.5103,2.5103,2.5065,2.5065,2.5065]}]]